This demonstration page uses our WeatherBlox Daily Observations layout. Learn more.

39.29038, -76.61219

Hourly Observations for July 18, 2016

Temp ( °F °C ) Dew Point ( °F °C ) Humidity (%) Winds ( mph kmh ) Pressure ( in mb ) Visibility ( mi km ) Precip ( " mm )
12:54 am 00:54 undefined 81 27.2 67 19.4 62 62 undefined N/A 30.14 1021 N/A 0 0
1:54 am 01:54 undefined 80 26.7 68 20 67 67 undefined N/A 30.13 1020 N/A 0 0
2:54 am 02:54 undefined 80 26.7 68 20 67 67 undefined N/A 30.13 1020 N/A 0 0
3:54 am 03:54 undefined 79 26.1 69 20.6 72 72 undefined N/A 30.13 1020 N/A 0 0
4:54 am 04:54 undefined 78 25.6 69 20.6 74 74 undefined N/A 30.11 1020 N/A 0 0
5:54 am 05:54 undefined 78 25.6 70 21.1 76 76 undefined N/A 30.13 1020 N/A 0 0
6:54 am 06:54 undefined 79 26.1 70 21.1 74 74 undefined N/A 30.13 1020 N/A 0 0
8:54 am 08:54 undefined 85 29.4 70 21.1 61 61 undefined N/A 30.12 1020 N/A 0 0
9:54 am 09:54 undefined 88 31.1 69 20.6 54 54 undefined N/A 30.12 1020 N/A 0 0
10:54 am 10:54 undefined 93 33.9 67 19.4 42 42 undefined N/A 30.12 1020 N/A 0 0
11:54 am 11:54 undefined 94 34.4 66 18.9 40 40 undefined N/A 30.11 1020 N/A 0 0
12:54 pm 12:54 undefined 95 35 66 18.9 39 39 undefined N/A 30.09 1019 N/A 0 0
1:54 pm 13:54 undefined 97 36.1 64 17.8 34 34 undefined N/A 30.06 1018 N/A 0 0
2:54 pm 14:54 undefined 95 35 67 19.4 40 40 undefined N/A 30.05 1018 N/A 0 0
3:54 pm 15:54 undefined 94 34.4 66 18.9 40 40 undefined N/A 30.05 1018 N/A 0 0
4:54 pm 16:54 undefined 80 26.7 66 18.9 62 62 undefined N/A 30.09 1019 N/A 0 0
5:54 pm 17:54 undefined 75 23.9 70 21.1 84 84 undefined N/A 30.08 1019 N/A 0.01 0.254
6:54 pm 18:54 undefined 77 25 71 21.7 82 82 undefined N/A 30.04 1017 N/A 0 0
7:54 pm 19:54 undefined 79 26.1 69 20.6 72 72 undefined N/A 30.04 1017 N/A 0 0
8:54 pm 20:54 undefined 78 25.6 69 20.6 74 74 undefined N/A 30.06 1018 N/A 0 0
9:54 pm 21:54 undefined 78 25.6 68 20 71 71 undefined N/A 30.07 1018 N/A 0 0
10:54 pm 22:54 undefined 77 25 69 20.6 77 77 undefined N/A 30.07 1018 N/A 0 0
11:54 pm 23:54 undefined 77 25 68 20 74 74 undefined N/A 30.07 1018 N/A 0 0

Powered by AerisWeather